664  
ASUS42 KMHX 280325  
RWRMHX  
WEATHER ROUNDUP FOR EASTERN NORTH CAROLINA  
NATIONAL WEATHER SERVICE NEWPORT/MOREHEAD CITY NC  
1100 PM EDT FRI MAY 27 2016  
 
NOTE: "FAIR" INDICATES FEW OR NO CLOUDS BELOW 12,000 FEET  
WITH NO SIGNIFICANT WEATHER AND/OR S TO VISIBILITY
 
 
NCZ015>017-031-032-045>047-102-103-280400-  
NORTH COAST  
 
CITY SKY/WX TMP DP RH WIND PRES REMARKS
 
EDENTON CLEAR N/A N/A N/A SE5 30.17S  
ELIZABETH CITY CLEAR 69 63 81 S5 30.16S  
KITTY HAWK CLEAR 67 61 81 CALM 30.17S  
MANTEO NOT AVBL  
 

 
 
NCZ045>047-081-094-103-104-280400-  
CENTRAL COAST  
 
CITY SKY/WX TMP DP RH WIND PRES REMARKS
 
FRISCO PTCLDY 74 66 76 SE6 30.16F  
 

 
 
NCZ095-097-098-100-101-280400-  
SOUTHERN COAST  
 
CITY SKY/WX TMP DP RH WIND PRES REMARKS
 
BEAUFORT CLOUDY 73 66 78 E3 30.15R  
CEDAR ISLAND NOT AVBL  
JACKSONVILLE CLEAR 71 64 78 SE6 30.14S  
PINEY ISLAND PTCLDY N/A N/A N/A SE3 30.16R  
WILMINGTON MOCLDY 68 65 90 E3 30.13S  
 

 
 
NCZ011>013-027>030-043-044-078>080-089-090>093-098-280400-  
COASTAL PLAIN  
 
CITY SKY/WX TMP DP RH WIND PRES REMARKS
 
AHOSKIE CLEAR 68 61 77 S3 30.16R  
CLINTON CLEAR 66 62 85 CALM 30.15R  
ELIZABETHTOWN CLEAR 66 60 81 CALM 30.14S  
GOLDSBORO CLEAR 69 62 77 E3 30.13S  
GREENVILLE CLEAR 68 59 73 CALM 30.16S  
HAVELOCK CLOUDY 67 61 81 CALM 30.16R  
KENANSVILLE PTCLDY 60 56 87 CALM 30.16R  
KINSTON CLEAR 68 60 76 CALM 30.16R  
NEW BERN PTCLDY 62 57 83 CALM 30.16S  
RICHLANDS CLOUDY 63 60 90 CALM 30.15S  
ROCKY MOUNT CLEAR 71 58 63 S5 30.15R  
WASHINGTON CLEAR 69 62 77 SE5 30.16S  
WHITEVILLE CLEAR 66 62 86 CALM 30.13R  
 

 
 
AMZ130-135-150-152-154-156-158-170-250-252-270-ANZ085-086-088-633-658-670-280400-  
MARINE OBSERVATIONS  
 
STATION/POSITION TIME TEMP WIND PRES WAVE SWELL
 
AIR SEA DIR/SP/G HT/PER HT/PER  
(UTC) (F) (DEG/KT/KT) (MB) (FT/S) (FT/S)  
CHESAPEAKE LIGHT 0300 70 170/ 21/ 22 1021.3  
64 E VA BEACH 0250 66 63 170/ 6/ 8 1021.6 2/ 8 2/ 8  
DUCK 0300 60 160/ 10/ 11 1021.0  
2 E DUCK 0211 63 N/A 2/ 8  
OREGON INLET 0300 78 120/ 4/ 6 1021.6  
13E OREGON INLT 0300 68 N/A 3/ 7 2/ 7  
HATTERAS CG 0300 74 130/ 4/ 6 1020.9  
DIAMOND BUOY 0250 77 78 130/ 10/ 12 1021.1 3/ 8 2/ 8  
CAPE LOOKOUT 0300 74 100/ 8/ 8 1020.6  
BEAUFORT LAB 0300 74 80/ 3/ 5 1020.2  
30 SE NEW RVR IN 0225 75 N/A 3/ 7  
27 SE WRIGHTSVLE 0308 76 75 100/ 8/ 12 1019.9  
5 SE WRIGHTSVLE 0208 75 74 110/ 8/ 12 1020.9  
225 S CAPE HAT 0250 77 77 80/ 19/ 21 1017.5 6/ 9 5/ 9  
41 SE CHARLESTON 0250 77 76 90/ 10/ 12 1018.0 3/ 8 3/ 8  
 

 
 
 
CLICK HERE TO GO TO PREVIOUS BULLETINS.

The Nexlab NC Page Main Text Page